This is the latest recevied weather packets stored in our database for station/object SQ9SMC-13. If no packets are shown the sender has not sent any weather packets the latest 10 day(s).
| Time | Temp. | Humidity | Pressure | Rain* | Wind** | Luminosity | Snow |
|---|---|---|---|---|---|---|---|
| 1777870203 | 15° C | 44% | 1016.8 hPa | 0 mm | - | 58 W/m² | - |
| 1777869904 | 15° C | 44% | 1016.9 hPa | 0 mm | - | 54 W/m² | - |
| 1777869603 | 15° C | 44% | 1016.9 hPa | 0 mm | - | 52 W/m² | - |
| 1777869302 | 14.44° C | 45% | 1016.7 hPa | 0 mm | - | 48 W/m² | - |
| 1777869002 | 14.44° C | 45% | 1016.9 hPa | 0 mm | - | 44 W/m² | - |
| 1777868703 | 14.44° C | 46% | 1016.9 hPa | 0 mm | - | 40 W/m² | - |
| 1777868403 | 14.44° C | 45% | 1016.7 hPa | 0 mm | - | 37 W/m² | - |
| 1777868104 | 13.89° C | 45% | 1016.9 hPa | 0 mm | - | 34 W/m² | - |
| 1777867804 | 13.89° C | 46% | 1016.6 hPa | 0 mm | - | 30 W/m² | - |
| 1777867502 | 13.33° C | 47% | 1016.6 hPa | 0 mm | - | 27 W/m² | - |
| 1777867204 | 13.33° C | 48% | 1016.7 hPa | 0 mm | - | 24 W/m² | - |
| 1777866902 | 12.78° C | 49% | 1016.5 hPa | 0 mm | - | 21 W/m² | - |
| 1777866602 | 12.78° C | 49% | 1016.7 hPa | 0 mm | - | 17 W/m² | - |
| 1777866305 | 12.22° C | 50% | 1016.8 hPa | 0 mm | - | 15 W/m² | - |
| 1777866004 | 12.22° C | 51% | 1016.7 hPa | 0 mm | - | 13 W/m² | - |
| 1777865705 | 12.22° C | 51% | 1016.8 hPa | 0 mm | - | 11 W/m² | - |
| 1777865402 | 12.22° C | 50% | 1016.8 hPa | 0 mm | - | 8 W/m² | - |
| 1777865104 | 12.22° C | 51% | 1016.8 hPa | 0 mm | - | 6 W/m² | - |
| 1777864805 | 11.67° C | 51% | 1016.7 hPa | 0 mm | - | 4 W/m² | - |
| 1777864503 | 11.67° C | 52% | 1016.8 hPa | 0 mm | - | 3 W/m² | - |
| 1777864203 | 11.67° C | 51% | 1016.6 hPa | 0 mm | - | 2 W/m² | - |
| 1777863904 | 12.22° C | 52% | 1016.8 hPa | 0 mm | - | 1 W/m² | - |
| 1777863605 | 12.22° C | 52% | 1016.7 hPa | 0 mm | - | 0 W/m² | - |
| 1777863305 | 11.67° C | 52% | 1016.6 hPa | 0 mm | - | 0 W/m² | - |
| 1777863004 | 11.67° C | 52% | 1016.5 hPa | 0 mm | - | 0 W/m² | - |
* Rain latest hour (hover to see other rain measurements)
** Current wind speed in m/s (hover to see current wind gust speed)